Port Angeles, WA
on Saturday, November 10, 2012

Saturday
Previous Day Next Day
Daily Summary
 ActualAverageRecord
Temperature
Mean Temperature °F °F  
Max Temperature 44°F 51°F 62°F (1990)
Min Temperature 28°F 38°F 25°F (1986)
Degree Days
Heating Degree Days 29    
Moisture
Dew Point 25°F   
Average Humidity 69    
Maximum Humidity 85    
Minimum Humidity 38    
Precipitation
Precipitation 0.00 in in in ()
Wind
Wind Speed 6 mph   
Max Wind Speed 9 mph   
Max Gust Speed mph   
Visibility 10 miles   
Events     
Averages and records for this station are not official NWS values.
Key: T is trace of precipitation, MM is missing value
Source: NWS Daily Summary
Seasonal Weather Averages
Time(PST)TemperatureDew PointHumidity Pressure Visibility Wind DirectionWind SpeedGust SpeedPrecipitationEvents Conditions
12:53 AM 32.0°F 27.0°F 82% 30.00 in 10.0 miles SW 6.9 mph - N/A   Clear
1:53 AM 33.1°F 27.0°F 78% 30.01 in 10.0 miles SW 9.2 mph - N/A   Overcast
2:53 AM 34.0°F 27.0°F 75% 30.01 in 10.0 miles SW 9.2 mph - N/A   Overcast
3:53 AM 34.0°F 27.0°F 75% 30.03 in 10.0 miles North - - N/A   Overcast
4:53 AM 34.0°F 27.0°F 75% 30.05 in 10.0 miles North - - N/A   Overcast
5:53 AM 33.1°F 26.1°F 75% 30.06 in 10.0 miles North - - N/A   Partly Cloudy
6:53 AM 32.0°F 26.1°F 79% 30.07 in 10.0 miles North - - N/A   Partly Cloudy
7:53 AM 28.9°F 25.0°F 85% 30.08 in 10.0 miles North - - N/A   Clear
8:53 AM 36.0°F 28.0°F 73% 30.10 in 10.0 miles North - - N/A   Clear
9:53 AM 41.0°F 28.0°F 60% 30.12 in 10.0 miles North - - N/A   Clear
10:53 AM 43.0°F 23.0°F 45% 30.13 in 10.0 miles North - - N/A   Clear
11:53 AM 44.1°F 24.1°F 45% 30.15 in 10.0 miles North - - N/A   Clear
12:53 PM 43.0°F 21.0°F 42% 30.16 in 10.0 miles Variable 6.9 mph - N/A   Unknown
1:53 PM 43.0°F 19.0°F 38% 30.15 in 10.0 miles ENE 6.9 mph - N/A   Clear
2:53 PM 41.0°F 21.9°F 47% 30.16 in 10.0 miles East 6.9 mph - N/A   Clear
3:53 PM 39.9°F 21.0°F 47% 30.17 in 10.0 miles East 4.6 mph - N/A   Partly Cloudy
4:53 PM 35.1°F 25.0°F 67% 30.17 in 10.0 miles Calm Calm - N/A   Clear
5:53 PM 30.0°F 24.1°F 79% 30.18 in 10.0 miles Calm Calm - N/A   Clear
6:53 PM 30.9°F 25.0°F 79% 30.19 in 10.0 miles SW 4.6 mph - N/A   Partly Cloudy
7:53 PM 32.0°F 25.0°F 75% 30.19 in 10.0 miles SW 6.9 mph - N/A   Clear
8:53 PM 30.2°F 24.8°F 80% 30.18 in 10.0 miles WSW 8.1 mph - N/A   Clear
9:53 PM 30.0°F 25.0°F 82% 30.19 in 10.0 miles SSW 3.5 mph - N/A   Clear
10:53 PM 30.9°F 26.1°F 82% 30.19 in 10.0 miles SW 5.8 mph - N/A   Clear
11:53 PM 30.9°F 26.1°F 82% 30.21 in 10.0 miles SW 3.5 mph - N/A   Clear
Moon Phase
Nov. 10 Nov. 13 Nov. 20 Nov. 28 Dec. 06
Sunrise:07:14 AM (PST) Moon Rise:03:10 AM (PST)11/10
Sunset:04:41 PM (PST) Moon Set:02:43 PM (PST)11/10

Copyright © 2014 The Weather Underground, Inc.